National Weather Service Raw Text Product

Displaying AFOS PIL: RWRTX Received: 2018-02-22 01:00 UTC


815 
ASUS44 KFWD 220101
RWRTX 
NORTH TEXAS HOURLY WEATHER ROUNDUP
NATIONAL WEATHER SERVICE FORT WORTH TX
700 PM CST WED FEB 21 2018

NOTE: "FAIR" INDICATES FEW OR NO CLOUDS BELOW 12,000 FEET WITH NO
SIGNIFICANT WEATHER AND/OR OBSTRUCTIONS TO VISIBILITY.

TXZ118-119-220200-
DALLAS/FORT WORTH METROPLEX
  
CITY           SKY/WX    TMP DP  RH WIND       PRES   REMARKS
DFW AIRPORT    CLOUDY    37  35  92 NW15      30.24F WCI  28          
DALLAS LOVE    CLOUDY    37  35  92 NW14G21   30.26F WCI  28          
FTW MEACHAM    CLOUDY    35  33  92 NW17G28   30.28R WCI  25          
DAL-EXECUTIVE  CLOUDY    37  36  96 NW18      30.23R WCI  27          
FTW-ALLIANCE   CLOUDY    34  33  96 NW13      30.27S WCI  25          
FTW-NAS-JRB    CLOUDY    35  32  88 NW18      30.29R WCI  24          
FTW-SPINKS     CLOUDY    36  34  93 NW21      30.29R WCI  24          
ARLINGTON      CLOUDY    35  34  96 NW13G23   30.26R WCI  26          
GRAND PRAIRIE  CLOUDY    36  36 100 W6G16     30.28F WCI  31          
ADDISON        RAIN      37  36  93 W9G23     30.25R WCI  31          
MESQUITE       CLOUDY    37  37 100 N8        30.19S WCI  31          
LANCASTER      CLOUDY    38  37  96 NW12      30.24R WCI  31          
$$

TXZ091>094-102>105-117-120-121-131>134-220200-
NORTH CENTRAL TEXAS
  
CITY           SKY/WX    TMP DP  RH WIND       PRES   REMARKS
SHRMAN/DENISON NOT AVBL                                               
BOWIE          CLOUDY    31  30  98 NW12      30.30F FOG     WCI  21  
BRIDGEPORT     CLOUDY    32  32 100 NW3       30.33R FOG              
DECATUR        CLOUDY    32  31  97 NW3       30.28R FOG              
DENTON         CLOUDY    34  33  96 NW14      30.27S WCI  25          
MCKINNEY       RAIN      36  36 100 NW12      30.21R WCI  28          
BONHAM         LGT RAIN  35  34  98 E14       30.22F WCI  25          
ROCKWALL       RAIN      38  38 100 NW9       30.17S WCI  31          
TERRELL        LGT RAIN  41  38  89 NE16      30.15F WCI  33          
WAXAHACHIE     CLOUDY    36  36 100 NW12      30.25R WCI  28          
CLEBURNE       CLOUDY    34  34 100 NW18G25   30.28R WCI  23          
GRANBURY       CLOUDY    34  33  94 NW14G21   30.31R FOG     WCI  25  
$$

TXZ083>090-098>101-113>116-127>130-139>142-154-155-220200-
WESTERN NORTH TEXAS
  
CITY           SKY/WX    TMP DP  RH WIND       PRES   REMARKS
WICHITA FALLS  FRZ RAIN  26  24  92 N16       30.35S FOG     WCI  14  
WF-KICKAPOO    MIX PCPN  28  26  95 N9        30.38S WCI  19          
VERNON         CLOUDY    28  24  85 N13G18    30.38S WCI  17          
ABILENE        CLOUDY    25  24  96 N14       30.31S FOG     WCI  13  
ABILENE-DYESS  CLOUDY    25  24  94 N9        30.31F WCI  16          
CISCO          FAIR      27  25  93 NW12G31   30.31S FOG     WCI  16  
EASTLAND       CLOUDY    26  25  94 NW13G21   30.31S WCI  15          
RANGER         CLOUDY    28  27  99 CALM      30.31S                  
MINERAL WELLS  CLOUDY    31  29  92 NW16      30.30S FOG     WCI  20  
STEPHENVILLE   CLOUDY    31  30  94 CALM      30.30R                  
COMANCHE       DRIZZLE   30  30 100 NW18G24   30.30S WCI  18          
BROWNWOOD      CLOUDY    30  28  93 N13       30.30S FOG     WCI  20  
$$

TXZ143>147-156>162-174-175-220200-
CENTRAL TEXAS
  
CITY           SKY/WX    TMP DP  RH WIND       PRES   REMARKS
WACO           LGT RAIN  38  36  92 NW15      30.25R WCI  29          
WACO-TSTC      LGT RAIN  39  39 100 N16       30.26R WCI  30          
WACO-MCGREGOR  CLOUDY    38  37  97 NW12      30.25R WCI  30          
HILLSBORO      CLOUDY    38  37  99 NW14      30.24R THUNDER WCI  29  
CORSICANA      LGT RAIN  42  42 100 NE7       30.18F WCI  38          
MEXIA          TSTM      41  40  97 N5        30.18R WCI  38          
HEARNE         TSTM      40  40 100 NW6       30.23R WCI  36          
CAMERON        TSTM      40  39  96 N8        30.23S WCI  34          
TEMPLE         CLOUDY    43  42  97 NW14G20   30.23R WCI  36          
KILLEEN        MIX PCPN  38  37  98 NW15      30.23R WCI  29          
KILLEEN-SKYLRK CLOUDY    39  38  96 NW10G21   30.25R WCI  32          
FORT HOOD      CLOUDY    37  37 100 NW16      30.21R FOG     WCI  28  
GATESVILLE     CLOUDY    37  36  93 NW9G18    30.27R FOG     WCI  31  
HAMILTON       CLOUDY    33  33 100 NW21G26   30.27R FOG     WCI  22  
LAMPASAS       CLOUDY    36  35  96 NW8       30.24R FOG     WCI  29  
$$

TXZ095>097-106>112-122>126-135>138-148>153-164>167-220200-
EAST TEXAS
  
CITY           SKY/WX    TMP DP  RH WIND       PRES   REMARKS
PARIS          RAIN      39  38  96 N13       30.26R WCI  31          
SULPHUR SPRNGS LGT RAIN  39  39 100 NE7       30.27S WCI  34          
MOUNT PLEASANT CLOUDY    44  44  98 N10       30.24F WCI  39          
GILMER         LGT RAIN  45  45  99 NW7       30.22S                  
MINEOLA        LGT RAIN  39  39 100 N7        30.22F WCI  34          
TYLER          RAIN      43  42  97 NE12      30.20S WCI  37          
LONGVIEW       CLOUDY    47  32  56 NE8       30.20S                  
MARSHALL       CLOUDY    50  48  92 NW9       30.22R                  
ATHENS         CLOUDY    37  37 100 NE9       30.18F WCI  31          
PALESTINE      LGT SNOW  43  42  97 NE10      30.20S WCI  37          
JACKSONVILLE   RAIN      42  42 100 NE10G16   30.21S WCI  36          
CENTER         LGT RAIN  56  55  95 N10       30.17R                  
NACOGDOCHES    CLOUDY    57  56  96 N8        30.17R                  
LUFKIN         CLOUDY    58  58 100 N10       30.15R                  
$$

SUPPLEMENTAL OBSERVATIONS (NWS FORT WORTH AREA)
  
CITY           SKY/WX    TMP DP  RH WIND       PRES   REMARKS
$$

SUPPLEMENTAL OBSERVATIONS (NWS NORMAN AREA)
  
CITY           SKY/WX    TMP DP  RH WIND       PRES   REMARKS
GOODLETT         N/A     26  25  94 N8        30.36S WCI  18          
ODELL            N/A     25  24  97 N12       30.39S WCI  14          
CROWELL          N/A     26  24  94 N9        30.38S WCI  16          
KNOX CITY        N/A     26  24  91 N8        30.37F WCI  17          
SEYMOUR          N/A     25  24  93 NW12      30.38R WCI  15          
$$

SUPPLEMENTAL OBSERVATIONS (NWS SAN ANGELO AREA)
  
CITY           SKY/WX    TMP DP  RH WIND       PRES   REMARKS
WEINERT          N/A     25  23  91 N8        30.36F WCI  17          
HASKELL          N/A     25  25 100 N12       30.35F WCI  14          
THROCKMORTON     N/A     26  25  96 N8        30.36F WCI  17          
STAMFORD         N/A     26  24  94 N10       30.36S WCI  15          
CLYDE            N/A     24  23  97 CALM      30.31S                  
$$

SUPPLEMENTAL OBSERVATIONS (NWS SHREVEPORT AREA)
  
CITY           SKY/WX    TMP DP  RH WIND       PRES   REMARKS
$$

SUPPLEMENTAL OBSERVATIONS ARE A COLLECTION OF AUTOMATED INSTRUMENTS
THAT ARE MAINTAINED BY A VARIETY OF FEDERAL AND STATE AGENCIES. 
CERTAIN ELEMENTS...SUCH AS HUMIDITY VALUES AND SUSTAINED WIND 
SPEEDS...MAY BE APPROXIMATED.